Starlink 33678

operational
NORAD ID: 63509 Int'l Des: 2025-071 Owner: SPXS Country: US Constellation: starlink
LEOCIRCULAR

Über Starlink 33678

Beschreibung wird geladen...

Live-Position

3D-Globus wird geladen...

Nächste Überflüge

Höhenverlauf

Altitude vs Time

uPlot chart will show altitude changes over time

Zweizeiliger Elementsatz

1 63509U 25071S 25349.91996717 .00025140 00000-0 85787-3 0 9990
2 63509 53.1570 169.0418 0001005 81.7171 278.3944 15.30206588 39676
Epoch: 15. Dez. 2025 • Age: 19 hours

Aktueller Status

Höhe 491.2 km
Geschwindigkeit 7.62 km/s
Subsatellitenpunkt -45.66°S, 140.97°E
Startdatum 7. Apr. 2025
Alter 0.6 years
Typ internet

Technische Details

Klassifizierung Payload
Masse 575.00 kg
Trockenmasse 530.00 kg
Gesamtmasse 575.00 kg
Länge 0.30 m
Durchmesser 4.10 m
Spannweite 29.00 m
Form Box + pan
Hersteller SPXS
Bus-Typ Starlink V2MO
Phasenstatus In Orbit
Besitzer/Staat SPXS/US

Große Konstellationen

Loading constellations...